Volver al catálogo

TANSAT

ActivoCienciaSSO
NORAD 41898·PAYLOAD·🇨🇳 China

Lanzado Dec 21, 2016 desde Jiuquan Satellite Launch Center

Loading…

Próximos Pases (próximas 24 horas)

TLE

ActualizadoSource: Space-Track

Época: Sep 14, 2026, 14:48 UTC

1 41898U 16081A   26257.61733308 -.00000017  00000-0  70257-5 0  9994
2 41898  98.5414 260.5440 0021369  35.5486 324.7132 14.60002712517677

Sigue TANSAT en tiempo real con AllMySat

Download on the App Store